Погода в Оранже

Франция     44°08′10″N   4°48′11″E
темп.,
°C
ветер,
м/с
пор.,
м/с
влажн.,
%
обл.,
%
осадки,
мм/ч
давл.,
гПа
погр.,
м
12 апреля, пн
пн1223:00+9с81392100 14.6 1017850
02:00+6с71488100 23.8 1021852
05:00+6с8148573 0.6 1021951
08:00+6с9167857 0.6 10211301
11:00+8с12196621 0.0 10231495
14:00+12с1318423 0.0 10221998
17:00+12с1218380 0.0 10211995
20:00+9с1220390 0.0 10221524
13 апреля, вт
вт1323:00+8с1220430 0.0 10231339
02:00+7с1220490 0.0 10241268
05:00+6с1120530 0.0 10241157
08:00+5с1220570 0.0 10241090
11:00+9с1320500 0.0 10241269
14:00+13с1317384 0.0 10241507
17:00+14с11144077 0.0 10221506
20:00+10с11164797 0.0 10231007
14 апреля, ср
ср1423:00+8с7155511 0.0 1024802
02:00+6с6136413 0.0 1024548
05:00+4с5127492 0.0 1024381
08:00+4с4117599 0.0 1024400
11:00+9с6756100 0.0 1024591
14:00+13с55440 0.0 10221100
17:00+14с89370 0.0 10201152
20:00+11с713480 0.0 1020632
15 апреля, чт
чт1523:00+9с715450 0.0 1021676
02:00+7с512560 0.0 1021463
05:00+4с513680 0.0 1021408
08:00+4с514690 0.0 1021507
11:00+9с710510 0.0 1021732
14:00+13с78380 0.0 10201185
17:00+14с78350 0.0 10171167
20:00+12с612460 0.0 1017513
16 апреля, пт
пт1623:00+9с613500 0.0 1019516
02:00+6ссв47611 0.0 1019197
05:00+4с35690 0.0 101894
08:00+5ссз346921 0.0 1018145
11:00+11с335210 0.0 1017464
14:00+15зюз11435 0.0 10151338
17:00+16ю544386 0.1 10131749
20:00+12ююз476761 1.1 1015342